This demonstration page uses our WeatherBlox Daily Observations layout. Learn more.

36.17497, -115.13722

Hourly Observations for July 19, 2019

Temp ( °F °C ) Dew Point ( °F °C ) Humidity (%) Winds ( mph kmh ) Pressure ( in mb ) Visibility ( mi km ) Precip ( " mm )
12:53 am 00:53 Clear 87 30.6 32 0 14 14 S 3 6 29.74 1007 10 16.09344 0 0
1:53 am 01:53 Clear 85 29.4 33 0.6 15 15 Calm 29.74 1007 10 16.09344 0 0
2:53 am 02:53 Clear 83 28.3 31 -0.6 15 15 SE 3 6 29.74 1007 10 16.09344 0 0
3:53 am 03:53 Clear 81 27.2 32 0 17 17 E 3 6 29.74 1007 10 16.09344 0 0
4:53 am 04:53 Clear 78 25.6 33 0.6 19 19 ESE 6 9 29.77 1008 10 16.09344 0 0
5:53 am 05:53 Sunny 77 25 36 2.2 23 23 ESE 8 13 29.77 1008 10 16.09344 0 0
6:53 am 06:53 Sunny 81 27.2 40 4.4 23 23 SSE 6 9 29.77 1008 10 16.09344 0 0
7:53 am 07:53 Sunny 85 29.4 39 3.9 20 20 SE 7 11 29.8 1009 10 16.09344 0 0
8:53 am 08:53 Sunny 88 31.1 39 3.9 18 18 SSE 13 20 29.8 1009 10 16.09344 0 0
9:53 am 09:53 Sunny 91 32.8 39 3.9 16 16 SSE 6 9 29.8 1009 10 16.09344 0 0
10:53 am 10:53 Sunny 95 35 36 2.2 13 13 S 14 22 29.8 1009 10 16.09344 0 0
11:53 am 11:53 Sunny 98 36.7 28 -2.2 8 8 SSE 10 17 29.77 1008 10 16.09344 0 0
12:53 pm 12:53 Sunny 100 37.8 24 -4.4 7 7 S 16 26 29.74 1007 10 16.09344 0 0
1:53 pm 13:53 Sunny 100 37.8 20 -6.7 5 5 S 13 20 29.74 1007 10 16.09344 0 0
2:53 pm 14:53 Sunny 101 38.3 22 -5.6 6 6 S 15 24 29.71 1006 10 16.09344 0 0
3:53 pm 15:53 Sunny 103 39.4 23 -5 6 6 S 24 39 29.71 1006 10 16.09344 0 0
4:53 pm 16:53 Sunny 102 38.9 22 -5.6 6 6 SSW 16 26 29.68 1005 10 16.09344 0 0
5:53 pm 17:53 Sunny 101 38.3 24 -4.4 6 6 SSW 15 24 29.68 1005 10 16.09344 0 0
6:53 pm 18:53 Sunny 100 37.8 26 -3.3 7 7 SSW 14 22 29.68 1005 10 16.09344 0 0
7:53 pm 19:53 Sunny 97 36.1 29 -1.7 9 9 SSW 14 22 29.68 1005 10 16.09344 0 0
8:53 pm 20:53 Clear 95 35 29 -1.7 9 9 SSW 14 22 29.68 1005 10 16.09344 0 0
9:53 pm 21:53 Clear 93 33.9 29 -1.7 10 10 SSW 10 17 29.71 1006 10 16.09344 0 0
10:53 pm 22:53 Clear 90 32.2 31 -0.6 12 12 S 9 15 29.71 1006 10 16.09344 0 0
11:53 pm 23:53 Clear 89 31.7 32 0 13 13 SSW 9 15 29.71 1006 10 16.09344 0 0

Powered by AerisWeather